DW9864 Weather Reports


time (UTC)temp
C
wind
direction
speed
KPH
gust
KPH
rain 1hr
cm
rain 24hr
cm
rain mn
cm
humidity
%
barometer
mb
20190420130346 16 91 3.2 12.9 0.00 0.00 0.00 66 1022.1
20190420125342 17 184 3.2 9.7 0.00 0.00 0.00 65 1022.2
20190420124400 17 107 3.2 12.9 0.00 0.00 0.00 64 1022.3
20190420123341 17 111 3.2 6.4 0.00 0.00 0.00 66 1022.4
20190420122351 16 127 1.6 12.9 0.00 0.00 0.00 68 1022.5
20190420121406 16 253 1.6 14.5 0.00 0.00 0.00 70 1022.6
20190420120349 16 171 4.8 14.5 0.00 0.00 0.00 69 1022.6
20190420115340 16 94 6.4 16.1 0.00 0.00 0.00 70 1022.7
20190420114401 16 135 3.2 16.1 0.00 0.00 0.00 70 1022.7
20190420113406 16 145 3.2 14.5 0.00 0.00 0.00 73 1022.8
20190420112349 16 163 3.2 11.3 0.00 0.00 0.00 72 1023.0
20190420111341 16 250 8.0 12.9 0.00 0.00 0.00 75 1023.1
20190420110347 15 176 4.8 8.0 0.00 0.00 0.00 77 1023.1
20190420105401 15 153 6.4 16.1 0.00 0.00 0.00 80 1023.2
20190420104346 14 157 3.2 16.1 0.00 0.00 0.00 85 1023.3
20190420103406 14 138 8.0 14.5 0.00 0.00 0.00 85 1023.4
20190420102345 15 153 4.8 12.9 0.00 0.00 0.00 84 1023.5
20190420101339 15 147 1.6 8.0 0.00 0.00 0.00 86 1023.6
20190420100344 14 355 3.2 12.9 0.00 0.00 0.00 86 1023.7
20190420095405 14 148 4.8 16.1 0.00 0.00 0.00 86 1023.6
20190420094345 14 139 9.7 16.1 0.00 0.00 0.00 86 1023.4
20190420093405 14 183 6.4 24.1 0.00 0.00 0.00 86 1023.5
20190420092350 15 174 6.4 16.1 0.00 0.00 0.00 84 1023.5
20190420091345 15 331 6.4 16.1 0.00 0.00 0.00 82 1023.5
20190420090352 15 254 9.7 17.7 0.00 0.00 0.00 80 1023.4
20190420085340 15 273 3.2 16.1 0.00 0.00 0.00 80 1023.7
20190420084350 15 182 3.2 11.3 0.00 0.00 0.00 81 1023.8
20190420083341 14 190 8.0 14.5 0.00 0.00 0.00 81 1023.8
20190420082349 15 219 1.6 12.9 0.00 0.00 0.00 82 1023.8
20190420081341 15 169 4.8 14.5 0.00 0.00 0.00 80 1023.8
20190420080351 15 183 4.8 11.3 0.00 0.00 0.00 79 1023.8
20190420075340 14 289 6.4 11.3 0.00 0.00 0.00 79 1024.0
20190420074347 13 138 0.0 8.0 0.00 0.00 0.00 83 1024.0
20190420073338 13 143 1.6 4.8 0.00 0.00 0.00 86 1024.0
20190420072346 12 149 0.0 3.2 0.00 0.00 0.00 88 1023.9
20190420071402 12 190 0.0 1.6 0.00 0.00 0.00 89 1023.8
20190420070340 11 194 0.0 0.0 0.00 0.00 0.00 89 1024.0
20190420065349 11 194 0.0 0.0 0.00 0.00 0.00 89 1024.1
20190420064343 11 194 0.0 0.0 0.00 0.00 0.00 90 1024.1
20190420063348 11 194 0.0 0.0 0.00 0.00 0.00 89 1024.1
20190420062339 11 194 0.0 0.0 0.00 0.00 0.00 89 1024.2
20190420061345 11 194 0.0 1.6 0.00 0.00 0.00 89 1024.1
20190420060402 11 194 0.0 4.8 0.00 0.00 0.00 90 1023.9
20190420055338 11 267 0.0 1.6 0.00 0.00 0.00 90 1023.8
20190420054401 10 266 0.0 0.0 0.00 0.00 0.00 89 1023.9
20190420053345 11 266 0.0 3.2 0.00 0.00 0.00 89 1023.9
20190420052401 11 265 0.0 0.0 0.00 0.00 0.00 89 1023.8
20190420051345 11 264 0.0 3.2 0.00 0.00 0.00 89 1023.8
20190420050404 11 265 0.0 3.2 0.00 0.00 0.00 88 1023.8
20190420045350 10 265 0.0 1.6 0.00 0.00 0.00 88 1023.7
20190420044338 11 264 0.0 1.6 0.00 0.00 0.00 88 1023.7
20190420043343 11 267 0.0 3.2 0.00 0.00 0.00 87 1023.8
20190420042403 11 266 0.0 1.6 0.00 0.00 0.00 87 1023.8
20190420041344 11 266 0.0 0.0 0.00 0.00 0.00 87 1023.7
20190420040339 11 266 0.0 0.0 0.00 0.00 0.00 87 1023.6
20190420035347 11 266 0.0 0.0 0.00 0.00 0.00 86 1023.8
20190420034339 11 266 0.0 0.0 0.00 0.00 0.00 86 1023.8
20190420033349 11 266 0.0 0.0 0.00 0.00 0.00 85 1023.9
20190420032343 11 266 0.0 0.0 0.00 0.00 0.00 85 1023.8
20190420031405 11 266 0.0 0.0 0.00 0.00 0.00 85 1023.8
20190420030349 11 266 0.0 0.0 0.00 0.00 0.00 85 1023.9
20190420025338 11 266 0.0 0.0 0.00 0.00 0.00 84 1024.0
20190420024402 11 266 0.0 0.0 0.00 0.00 0.00 85 1024.0
20190420023349 11 266 0.0 0.0 0.00 0.00 0.00 85 1024.0
20190420022400 11 266 0.0 1.6 0.00 0.00 0.00 84 1024.1
20190420021343 11 266 0.0 0.0 0.00 0.00 0.00 84 1024.0
20190420020403 12 266 0.0 0.0 0.00 0.00 0.00 84 1024.1
20190420015350 12 266 0.0 0.0 0.00 0.00 0.00 83 1024.0
20190420014339 12 266 0.0 0.0 0.00 0.00 0.00 83 1024.1
20190420013348 12 266 0.0 0.0 0.00 0.00 0.00 83 1024.0
20190420012342 12 266 0.0 0.0 0.00 0.00 0.00 82 1024.1
20190420011403 12 266 0.0 0.0 0.00 0.00 0.00 81 1024.1
20190420010344 12 266 0.0 0.0 0.00 0.00 0.00 81 1024.2
20190420005339 12 266 0.0 0.0 0.00 0.00 0.00 81 1024.3
20190420004345 12 266 0.0 0.0 0.00 0.00 0.00 80 1024.3
20190420003401 12 266 0.0 0.0 0.00 0.00 0.00 80 1024.1
20190420002341 12 266 0.0 0.0 0.00 0.00 0.00 79 1024.2
20190420001401 13 266 0.0 4.8 0.00 0.00 0.00 79 1024.3
20190420000346 13 266 1.6 9.7 0.00 0.00 0.00 79 1024.4
20190419235405 12 262 0.0 6.4 0.00 0.00 0.00 80 1024.4
20190419234345 12 225 1.6 8.0 0.00 0.00 0.00 81 1024.5
20190419233406 13 167 4.8 8.0 0.00 0.00 0.00 81 1024.7
20190419232347 13 221 0.0 1.6 0.00 0.00 0.00 80 1024.9
20190419231341 13 221 0.0 1.6 0.00 0.00 0.00 82 1024.9
20190419230350 13 221 0.0 0.0 0.00 0.00 0.00 82 1024.9
20190419225407 13 221 0.0 0.0 0.00 0.00 0.00 82 1025.0
20190419224350 13 221 0.0 0.0 0.00 0.00 0.00 82 1025.1
20190419223352 13 221 0.0 0.0 0.00 0.00 0.00 81 1025.2
20190419222345 13 221 0.0 1.6 0.00 0.00 0.00 81 1025.3
20190419221339 13 221 0.0 0.0 0.00 0.00 0.00 80 1025.2
20190419220350 13 222 0.0 0.0 0.00 0.00 0.00 79 1025.4
20190419215343 13 222 0.0 3.2 0.00 0.00 0.00 79 1025.4
20190419214403 14 221 0.0 1.6 0.00 0.00 0.00 78 1025.3
20190419213346 13 221 0.0 1.6 0.00 0.00 0.00 78 1025.4
20190419212400 14 221 0.0 0.0 0.00 0.00 0.00 77 1025.5
20190419211352 14 221 0.0 1.6 0.00 0.00 0.00 75 1025.5
20190419210345 14 220 0.0 1.6 0.00 0.00 0.00 73 1025.4
20190419205404 15 222 0.0 3.2 0.00 0.00 0.00 73 1025.3
20190419204345 15 167 0.0 1.6 0.00 0.00 0.00 69 1025.3
20190419203404 15 167 0.0 1.6 0.00 0.00 0.00 68 1025.1
20190419202346 15 167 0.0 1.6 0.00 0.00 0.00 68 1024.9
20190419201403 15 167 0.0 0.0 0.00 0.00 0.00 68 1024.7
20190419200340 15 167 0.0 1.6 0.00 0.00 0.00 70 1024.4
20190419195350 15 167 0.0 1.6 0.00 0.00 0.00 69 1024.2
20190419194342 15 167 0.0 0.0 0.00 0.00 0.00 69 1023.9
20190419193353 15 167 0.0 0.0 0.00 0.00 0.00 71 1023.7
20190419192347 15 167 0.0 0.0 0.00 0.00 0.00 70 1023.6
20190419191405 16 167 0.0 1.6 0.00 0.00 0.00 68 1023.4
20190419190347 16 167 0.0 0.0 0.00 0.00 0.00 66 1023.2
20190419185402 16 167 0.0 0.0 0.00 0.00 0.00 65 1023.2
20190419184341 16 167 0.0 1.6 0.00 0.00 0.00 63 1023.1
20190419183352 16 167 0.0 1.6 0.00 0.00 0.00 62 1022.9
20190419182404 17 167 0.0 1.6 0.00 0.00 0.00 62 1022.7
20190419181345 17 167 0.0 1.6 0.00 0.00 0.00 62 1022.6
20190419180403 17 167 0.0 1.6 0.00 0.00 0.00 61 1022.5
20190419175348 17 167 0.0 4.8 0.00 0.00 0.00 61 1022.5
20190419174343 17 167 0.0 1.6 0.00 0.00 0.00 60 1022.4
20190419173352 17 164 0.0 3.2 0.00 0.00 0.00 60 1022.5
20190419172342 17 266 0.0 4.8 0.00 0.00 0.00 58 1022.4
20190419171354 17 273 1.6 6.4 0.00 0.00 0.00 61 1022.3
20190419170338 17 175 0.0 3.2 0.00 0.00 0.00 61 1022.4
20190419165401 17 175 1.6 6.4 0.00 0.00 0.00 59 1022.3
20190419164345 18 310 0.0 9.7 0.00 0.00 0.00 59 1022.2
20190419163405 18 177 0.0 3.2 0.00 0.00 0.00 62 1022.1
20190419162344 17 196 1.6 3.2 0.00 0.00 0.00 62 1022.1
20190419161404 17 246 1.6 6.4 0.00 0.00 0.00 63 1022.1
20190419160346 18 176 1.6 4.8 0.00 0.00 0.00 63 1022.1
20190419155339 18 128 1.6 4.8 0.00 0.00 0.00 64 1022.2
20190419154349 17 329 1.6 6.4 0.00 0.00 0.00 66 1022.1
20190419153344 17 153 0.0 3.2 0.00 0.00 0.00 64 1022.1
20190419152338 17 271 1.6 3.2 0.00 0.00 0.00 66 1022.0
20190419151403 17 186 0.0 3.2 0.00 0.00 0.00 65 1022.1
20190419150344 18 67 0.0 4.8 0.00 0.00 0.00 66 1021.9
20190419145404 17 134 0.0 4.8 0.00 0.00 0.00 66 1022.0
20190419144351 17 310 1.6 3.2 0.00 0.00 0.00 66 1022.2
20190419143346 17 192 0.0 6.4 0.00 0.00 0.00 68 1022.1
20190419142404 17 197 0.0 3.2 0.00 0.00 0.00 67 1022.0
20190419141400 17 180 0.0 6.4 0.00 0.00 0.00 66 1022.0
20190419140348 18 131 0.0 6.4 0.00 0.00 0.00 63 1022.1
20190419135340 18 235 0.0 4.8 0.00 0.00 0.00 64 1022.1
20190419134347 17 112 1.6 4.8 0.00 0.00 0.00 68 1022.2
20190419133343 17 157 0.0 4.8 0.00 0.00 0.00 69 1022.2
20190419132405 17 159 0.0 8.0 0.00 0.00 0.00 70 1022.2
20190419131348 17 151 0.0 6.4 0.00 0.00 0.00 74 1022.1